ICEYE-X5 (44389 NORAD) Tracking and Keplerian Element Data

This shows tracking and keplerian element data for the satellite.

Feedback or suggestion? Click here.




ElementValue
Catalog44389
NameICEYE-X5
Epoch Orbit195
Epoch Day199.40516103
Epoch Year2019
RAAN161.2907
Inclination97.6828
Eccentricity0.0020479
Argument of Perigee189.0138
Mean Anonmoly171.0719
Mean Motion14.96432122
Decay Rate-4.83E-06
L11 44389U 19038C 19199.40516103 -.00000483 00000-0 -37301-4 0 9993
L22 44389 97.6828 161.2907 0020479 189.0138 171.0719 14.96432122 1953

Live tracking and technical data element details for ICEYE-X5 (NORAD 44389). ICEYE-X5 can be tracked NOW for your location showing map with azimuth and elevation plus other details from your city location.

Track the satellite on the map from your city or location and see movement details for azimuth, elevation, latitude, longitude, range, height, and movement on the map or in text.







IsCatalogInMostPopularTable: catalog: 44389, numindb: 3
Update: records affected: 1



GetName: 44389 ICEYE-X5

Hit Count: updated at: Fri, 19 Jul 2019 08:10:44 GMT